User: anonymous   Login
Location: Drocourt
(49.0571°N, 1.7669°E)
Time: 18:06:22
(UTC+00:00)
Language:

A-11 Canister half - Orbit

View from above orbital plane
View from above orbital plane
View from above satellite
View from above satellite

Ground track
Ground track

The orbit data is extracted from the following two-line orbital elements,

1 00053U 60009E   24113.40091276 -.00000005  00000-0  77155-3 0  9997
2 00053  47.2768 246.1256 0098509 272.3599  86.5914 12.17330096839700
Epoch (UTC): 22 April 2024 09:37:18
Eccentricity: 0.0098509
inclination: 47.2768°
perigee height: 1525 km
apogee height: 1683 km
right ascension of ascending node: 246.1256°
argument of perigee: 272.3599°
revolutions per day: 12.17330096
mean anomaly at epoch: 86.5914°
orbit number at epoch: 83970

The dashed part of the orbit path shows where the satellite is in the earth's shadow,  

DLR